Temp
15 15 16 16 12 9 12 14 16 20 19 20 21 20 19 19 20 18 19 18 18 18 17 17 16 16 17 17 17 17 17 17 17 17 17 16 16 16 16 16 16 16 15 15 14 15 15 15 15
15 15 16 15 10 12 13 14 19 19 19 20 20 20 20 20 19 18 18 18 18 18 17 17 16 16 17 17 16 17 17 17 17 17 16 16 16 16 16 16 16 15 15 15 14 15 15 15 15
15 15 15 10 8 12 14 18 18 19 20 21 20 20 20 19 18 17 18 19 18 18 18 17 17 17 17 16 16 16 16 16 16 16 16 16 16 16 16 16 16 15 15 15 14 14 14 14 14
16 15 14 11 13 13 16 16 19 18 20 21 20 20 20 19 19 18 18 19 18 17 17 17 17 17 17 16 16 16 16 16 16 16 16 16 16 16 15 15 15 16 16 15 15 14 14 14 14
15 15 10 12 12 13 15 17 19 19 19 20 20 19 20 19 19 18 18 18 18 17 17 16 16 17 17 16 16 16 16 16 16 16 16 15 15 15 15 15 16 16 15 15 15 15 15 14 14
14 13 10 11 12 14 13 18 19 18 19 19 19 19 20 18 18 18 17 17 17 18 17 17 16 16 16 16 16 16 16 16 16 16 16 16 15 15 15 15 15 15 15 15 15 15 15 13 13
12 9 10 12 12 13 16 19 18 18 17 19 19 18 19 18 18 18 17 17 17 18 17 17 16 16 16 16 16 16 16 16 16 16 15 15 15 15 15 15 15 15 15 14 14 15 14 13 13
14 9 12 11 12 14 16 18 18 18 18 19 19 16 18 19 18 18 18 17 17 17 17 16 16 16 15 16 16 16 16 15 15 15 15 15 15 15 14 14 15 14 14 14 14 14 13 13 13
14 9 8 12 14 15 16 15 17 17 17 18 18 18 19 18 18 18 18 17 17 17 17 16 16 16 15 15 16 15 15 15 15 15 15 15 15 14 14 14 14 14 14 14 14 14 13 13 13
11 7 10 11 14 14 14 14 15 16 16 16 17 18 18 18 18 18 17 17 16 17 17 16 16 16 16 15 15 15 15 15 15 15 15 14 15 14 14 14 14 14 14 14 13 14 12 12 13
11 9 10 13 15 15 13 13 15 14 12 15 16 17 16 17 17 18 18 19 17 16 16 16 16 16 16 15 15 15 15 14 14 14 14 14 14 14 14 13 13 13 13 13 13 13 12 12 12
11 12 12 13 14 13 12 13 13 14 14 16 15 15 16 16 15 16 17 18 18 17 16 16 15 15 16 16 16 16 15 15 14 14 14 14 14 14 14 13 13 13 13 13 13 13 12 12 12
10 11 13 12 12 12 13 11 12 12 15 15 14 14 14 15 15 15 16 16 17 17 17 16 15 15 15 15 15 15 15 15 15 15 14 14 14 14 14 13 14 14 13 13 13 13 12 12 11
11 10 10 12 12 11 11 12 12 13 14 13 14 14 14 14 15 15 15 16 16 16 16 16 16 16 15 15 14 15 15 15 14 14 14 14 14 14 14 13 13 13 13 13 14 13 12 12 11
10 8 9 10 11 11 12 10 10 14 14 13 13 13 14 14 13 13 13 14 14 15 15 16 16 16 15 15 15 14 14 14 14 14 14 14 14 14 14 14 13 14 14 13 13 12 11 11 11
8 8 7 10 11 12 11 10 12 12 12 12 13 13 14 13 13 12 12 12 13 13 14 15 15 15 15 15 14 14 14 14 14 14 14 14 14 14 14 13 13 13 13 13 13 12 11 11 11
6 6 7 8 9 6 9 8 9 9 9 10 11 11 11 7 7 7 8 10 11 12 13 14 14 14 14 14 14 14 14 14 14 13 14 14 14 13 13 13 13 13 13 13 14 12 12 11 11
4 5 6 6 6 4 6 6 7 8 9 9 5 2 2 1 0 2 4 6 7 8 10 11 12 13 13 14 14 13 14 14 14 14 14 13 13 13 13 13 13 12 12 12 13 12 11 11 11
3 2 2 2 4 3 3 5 6 4 3 1 -1 -2 -2 -2 -2 -0 1 2 5 6 7 8 9 10 11 11 12 13 13 13 13 13 13 13 13 13 13 13 12 12 11 12 12 12 11 11 11
1 -0 -1 2 2 3 3 4 3 -0 -1 -2 -3 -3 -3 -3 -3 -3 -2 -1 0 2 5 6 7 8 9 10 10 11 12 12 12 13 13 13 13 13 13 13 13 12 11 11 11 11 11 11 11
1 -1 -0 -0 1 2 2 2 -1 -1 -2 -2 -3 -3 -3 -4 -4 -4 -4 -3 -2 -2 -0 1 4 7 7 8 9 10 11 11 11 12 12 12 13 13 13 13 13 12 12 12 12 11 11 11 11
-0 0 0 0 -0 -0 1 -1 -4 -3 -3 -4 -5 -3 -3 -4 -4 -4 -4 -5 -5 -4 -2 -1 1 3 5 6 6 7 8 10 11 12 11 12 12 12 12 12 12 12 12 11 12 11 11 11 11
-1 -0 -0 -0 -1 -2 1 -2 -4 -4 -5 -5 -6 -6 -5 -5 -5 -5 -5 -6 -6 -5 -4 -3 -2 0 3 4 5 6 7 8 9 10 11 11 11 11 11 12 12 12 12 11 11 12 11 10 10
0 -1 -1 -1 -2 -6 -1 -1 -6 -5 -6 -6 -6 -7 -7 -6 -5 -6 -6 -6 -6 -6 -5 -4 -4 -3 -1 1 3 6 7 8 8 9 10 11 11 11 11 11 11 11 11 11 11 12 11 11 10
-1 -2 -4 -6 -7 -3 -0 -3 -6 -6 -6 -6 -6 -7 -7 -7 -7 -7 -7 -8 -8 -7 -6 -5 -5 -4 -3 -3 -1 3 5 7 8 9 10 10 10 10 10 10 11 11 11 11 11 11 11 11 11
-2 -2 -5 -6 -6 -6 -3 -6 -7 -6 -7 -7 -7 -6 -6 -7 -8 -8 -8 -8 -8 -8 -7 -7 -6 -5 -5 -4 -4 -1 3 5 7 7 9 9 10 10 10 10 10 10 10 10 10 10 11 11 10
-2 -3 -2 -4 -5 -5 -4 -6 -5 -6 -6 -6 -6 -7 -7 -7 -7 -8 -7 -9 -9 -8 -8 -8 -7 -6 -5 -5 -5 -3 -1 1 4 6 8 9 9 9 9 9 9 9 9 10 10 10 10 10 10
-3 -3 -5 -4 -7 -5 -6 -6 -8 -8 -7 -7 -7 -8 -8 -7 -8 -8 -8 -8 -8 -8 -8 -8 -8 -7 -6 -6 -5 -4 -3 -2 -0 2 5 7 9 8 9 9 8 8 8 8 9 9 9 10 10
-5 -5 -4 -5 -4 -5 -5 -12 -10 -10 -9 -9 -8 -8 -8 -8 -8 -9 -9 -9 -9 -8 -8 -8 -9 -8 -6 -7 -6 -5 -4 -3 -2 -0 1 3 6 7 8 8 8 8 8 8 8 8 9 9 9
-5 -7 -6 -6 -5 -4 -6 -8 -9 -12 -9 -8 -8 -9 -8 -9 -9 -9 -9 -9 -9 -9 -9 -9 -9 -9 -8 -7 -7 -6 -3 -6 -4 -2 -1 2 2 6 7 7 8 8 8 8 8 8 8 8 9
Height
1508 1508 1508 1508 1520 1525 1524 1510 1494 1490 1489 1486 1486 1486 1487 1486 1487 1499 1487 1489 1491 1493 1494 1497 1500 1502 1504 1506 1507 1509 1512 1514 1517 1518 1520 1522 1523 1525 1527 1528 1530 1531 1532 1534 1535 1537 1538 1540 1542
1508 1508 1509 1510 1527 1531 1519 1501 1492 1489 1488 1487 1486 1486 1486 1486 1486 1486 1487 1488 1491 1493 1495 1497 1499 1502 1504 1506 1508 1510 1511 1513 1515 1517 1519 1521 1523 1525 1527 1528 1530 1532 1533 1534 1536 1537 1539 1541 1543
1507 1508 1509 1514 1529 1527 1516 1494 1492 1487 1487 1487 1487 1486 1486 1487 1486 1486 1487 1488 1490 1492 1494 1497 1500 1502 1504 1506 1508 1510 1512 1514 1515 1516 1518 1521 1523 1525 1526 1528 1530 1532 1532 1534 1536 1538 1540 1542 1543
1507 1509 1512 1518 1518 1508 1500 1494 1491 1488 1487 1487 1486 1486 1487 1487 1487 1487 1489 1490 1491 1493 1494 1496 1498 1500 1503 1505 1508 1510 1512 1514 1515 1517 1518 1520 1523 1524 1526 1528 1530 1533 1534 1536 1538 1539 1540 1541 1543
1507 1508 1518 1519 1515 1503 1495 1491 1489 1488 1486 1485 1485 1486 1486 1487 1487 1487 1488 1490 1492 1493 1495 1497 1498 1499 1501 1504 1506 1509 1511 1513 1515 1517 1518 1520 1522 1524 1526 1528 1530 1532 1534 1536 1537 1539 1540 1540 1541
1507 1508 1521 1523 1512 1499 1493 1488 1488 1487 1485 1485 1486 1486 1485 1486 1488 1489 1488 1489 1491 1493 1494 1496 1497 1499 1501 1503 1505 1507 1510 1512 1515 1516 1518 1520 1521 1523 1525 1527 1529 1532 1534 1536 1537 1538 1539 1540 1541
1507 1512 1517 1513 1509 1501 1492 1488 1488 1487 1486 1486 1485 1485 1485 1485 1486 1487 1487 1489 1490 1491 1493 1494 1495 1497 1500 1502 1504 1506 1508 1510 1513 1515 1517 1519 1521 1522 1524 1526 1529 1531 1533 1536 1537 1537 1539 1540 1542
1506 1509 1511 1509 1507 1501 1490 1489 1488 1488 1486 1486 1485 1486 1485 1485 1486 1487 1486 1487 1488 1490 1491 1493 1494 1496 1498 1500 1503 1504 1507 1509 1511 1513 1515 1518 1520 1522 1523 1525 1527 1529 1532 1534 1536 1537 1539 1541 1542
1506 1514 1517 1504 1500 1493 1490 1490 1488 1489 1487 1485 1484 1484 1485 1485 1486 1486 1486 1487 1487 1488 1489 1491 1492 1494 1496 1498 1501 1503 1505 1508 1510 1512 1514 1516 1517 1519 1522 1524 1526 1528 1530 1533 1535 1537 1539 1541 1543
1505 1515 1506 1495 1492 1492 1490 1491 1490 1489 1486 1485 1484 1484 1484 1485 1486 1486 1486 1486 1486 1486 1486 1488 1490 1492 1494 1495 1498 1501 1503 1505 1507 1509 1511 1513 1516 1517 1520 1523 1525 1527 1528 1530 1533 1536 1538 1540 1543
1501 1503 1496 1492 1491 1490 1488 1487 1488 1486 1486 1485 1484 1482 1484 1485 1484 1484 1484 1484 1484 1484 1485 1485 1487 1488 1490 1493 1495 1497 1501 1503 1505 1507 1509 1511 1514 1515 1517 1520 1522 1524 1526 1528 1530 1533 1537 1540 1543
1501 1494 1495 1491 1490 1487 1487 1486 1482 1483 1482 1479 1480 1482 1482 1481 1482 1482 1480 1480 1481 1481 1482 1482 1483 1485 1487 1489 1491 1493 1495 1499 1501 1504 1506 1509 1511 1513 1514 1516 1519 1522 1524 1525 1527 1530 1534 1539 1542
1497 1494 1492 1491 1487 1485 1483 1481 1480 1478 1474 1476 1476 1476 1476 1476 1475 1477 1477 1476 1476 1476 1478 1480 1481 1482 1483 1485 1487 1489 1491 1493 1497 1500 1503 1505 1507 1510 1512 1513 1516 1519 1521 1523 1525 1527 1531 1536 1540
1493 1491 1490 1488 1483 1482 1478 1475 1479 1473 1469 1470 1471 1470 1469 1469 1469 1469 1470 1470 1471 1472 1474 1476 1477 1479 1481 1481 1482 1485 1487 1490 1492 1495 1497 1500 1503 1506 1509 1511 1513 1516 1518 1520 1522 1524 1529 1534 1538
1491 1490 1485 1480 1477 1478 1473 1476 1475 1468 1467 1466 1465 1465 1462 1461 1463 1462 1462 1462 1463 1465 1467 1469 1472 1474 1475 1477 1478 1480 1482 1486 1488 1490 1492 1494 1498 1501 1505 1507 1510 1512 1515 1517 1520 1523 1528 1532 1536
1490 1488 1490 1479 1476 1475 1476 1477 1472 1473 1471 1469 1468 1464 1462 1460 1459 1458 1457 1457 1456 1457 1459 1462 1465 1467 1470 1471 1473 1475 1477 1480 1482 1485 1488 1489 1492 1496 1499 1502 1506 1509 1512 1514 1516 1519 1524 1530 1533
1492 1491 1490 1487 1483 1488 1483 1479 1479 1476 1472 1471 1466 1464 1463 1457 1456 1455 1454 1454 1454 1453 1454 1455 1457 1459 1461 1465 1467 1470 1472 1474 1477 1480 1483 1485 1487 1490 1493 1497 1501 1505 1507 1509 1512 1516 1521 1525 1530
1505 1497 1493 1491 1495 1493 1488 1488 1486 1481 1476 1473 1471 1467 1464 1463 1461 1458 1454 1452 1450 1449 1449 1449 1451 1452 1454 1456 1459 1462 1465 1468 1471 1474 1476 1480 1482 1485 1488 1491 1496 1500 1503 1506 1509 1513 1517 1522 1527
1508 1507 1508 1505 1503 1499 1496 1493 1489 1486 1480 1480 1479 1475 1471 1468 1464 1459 1454 1450 1446 1444 1444 1444 1444 1445 1447 1449 1451 1454 1457 1461 1463 1466 1470 1473 1475 1479 1482 1485 1490 1494 1497 1501 1504 1508 1512 1518 1521
1515 1516 1515 1501 1503 1502 1491 1490 1493 1496 1497 1494 1488 1483 1478 1472 1467 1462 1455 1451 1446 1442 1441 1441 1439 1439 1440 1442 1445 1447 1450 1452 1456 1458 1461 1465 1469 1473 1476 1479 1483 1487 1492 1495 1499 1503 1507 1512 1515
1518 1520 1517 1513 1502 1498 1493 1491 1499 1505 1502 1497 1494 1491 1485 1480 1472 1466 1459 1455 1449 1443 1438 1437 1434 1433 1433 1434 1437 1440 1442 1443 1446 1447 1450 1455 1461 1466 1470 1474 1477 1481 1485 1490 1494 1497 1501 1503 1508
1519 1519 1517 1510 1509 1503 1497 1509 1512 1512 1507 1504 1501 1495 1490 1486 1480 1472 1466 1459 1454 1449 1442 1438 1433 1430 1429 1429 1431 1434 1435 1435 1436 1439 1444 1448 1453 1458 1463 1467 1471 1475 1479 1483 1487 1492 1496 1498 1503
1523 1517 1512 1506 1504 1504 1492 1502 1522 1517 1513 1512 1508 1501 1495 1491 1486 1478 1473 1468 1462 1453 1444 1439 1434 1430 1426 1425 1426 1427 1428 1429 1430 1433 1437 1441 1445 1451 1456 1460 1464 1468 1472 1477 1481 1484 1489 1491 1497
1520 1513 1503 1500 1502 1526 1503 1505 1528 1524 1526 1519 1513 1506 1499 1493 1489 1483 1476 1469 1464 1454 1445 1441 1435 1431 1425 1423 1421 1421 1420 1422 1424 1425 1428 1432 1437 1443 1448 1453 1457 1462 1466 1470 1474 1479 1482 1486 1491
1522 1520 1523 1530 1537 1511 1493 1513 1535 1533 1529 1525 1519 1512 1504 1497 1492 1485 1477 1472 1466 1453 1446 1443 1439 1430 1425 1422 1418 1413 1412 1414 1416 1419 1422 1424 1429 1435 1440 1446 1450 1455 1460 1466 1470 1473 1477 1481 1484
1525 1526 1537 1540 1534 1528 1506 1526 1540 1534 1531 1527 1521 1514 1506 1500 1494 1488 1480 1474 1465 1454 1450 1446 1441 1433 1427 1425 1419 1411 1405 1407 1408 1410 1415 1419 1423 1429 1434 1439 1444 1450 1454 1460 1464 1468 1472 1476 1480
1528 1529 1524 1525 1524 1524 1517 1532 1527 1528 1526 1521 1516 1511 1506 1500 1493 1488 1482 1472 1465 1459 1454 1449 1441 1437 1433 1424 1420 1410 1404 1404 1403 1404 1409 1413 1417 1421 1428 1434 1439 1444 1449 1453 1458 1462 1466 1471 1475
1534 1531 1534 1526 1544 1522 1527 1532 1540 1532 1524 1521 1516 1511 1504 1499 1495 1490 1484 1476 1470 1465 1459 1452 1444 1440 1433 1430 1421 1411 1405 1403 1404 1398 1401 1405 1410 1416 1422 1428 1433 1439 1444 1449 1453 1457 1461 1465 1470
1540 1540 1533 1532 1526 1530 1522 1564 1543 1539 1532 1525 1518 1512 1506 1501 1498 1492 1487 1480 1474 1467 1461 1454 1445 1439 1434 1427 1417 1414 1414 1405 1402 1401 1394 1402 1407 1412 1417 1421 1427 1433 1439 1444 1449 1452 1457 1460 1465
1544 1547 1541 1537 1534 1527 1532 1544 1539 1536 1532 1527 1519 1513 1507 1503 1497 1491 1487 1481 1473 1467 1459 1455 1450 1442 1436 1431 1422 1414 1403 1421 1410 1400 1400 1395 1401 1403 1413 1419 1422 1429 1434 1439 1444 1447 1450 1454 1459
Wind_Speed
8 7 7 4 4 5 4 6 3 2 1 3 4 3 3 2 1 3 12 7 4 10 18 22 22 24 23 23 22 23 20 18 16 17 20 19 18 18 16 15 14 15 15 15 14 14 18 17 14
9 6 4 3 4 1 4 5 3 2 3 6 3 3 1 2 2 9 15 10 6 7 14 21 21 23 23 22 22 22 20 19 17 17 20 19 17 17 16 14 14 14 14 15 14 17 18 15 13
7 3 1 4 3 4 4 2 2 4 4 1 1 1 2 1 5 16 8 10 9 8 10 19 20 21 22 22 21 21 20 19 17 17 19 18 16 15 15 15 15 12 12 15 18 17 15 11 8
4 2 3 3 5 6 5 7 4 3 3 3 3 2 1 4 11 9 10 7 8 9 10 14 18 21 22 22 21 20 20 18 17 16 19 19 15 14 14 16 16 13 12 12 12 12 11 7 6
4 3 3 1 5 5 4 8 8 2 5 4 4 2 0 1 8 10 11 10 10 10 8 9 14 20 22 22 21 20 20 19 18 19 18 18 16 15 15 16 19 15 10 8 6 5 7 7 7
2 2 3 3 5 5 8 12 4 4 4 2 3 2 2 7 7 8 11 12 11 8 9 9 13 19 22 23 22 21 21 20 19 19 18 18 16 17 16 17 19 15 9 7 5 4 7 11 8
4 3 4 3 5 6 4 8 1 0 2 2 3 5 4 16 11 11 15 11 12 11 13 12 12 16 19 22 23 22 22 22 21 20 19 19 18 17 18 19 20 14 10 8 7 5 15 12 10
2 3 2 5 4 6 5 6 5 4 4 3 1 3 3 15 15 14 15 16 12 15 14 16 15 15 20 22 22 22 23 22 22 22 21 20 19 18 19 20 21 14 11 9 8 13 16 16 14
3 2 4 5 5 4 5 6 4 8 7 6 2 4 6 10 17 15 16 16 17 18 18 17 16 13 19 22 24 24 23 23 23 22 22 22 20 20 21 22 21 15 11 11 10 16 18 16 15
4 3 8 6 2 3 8 5 8 7 10 14 16 11 6 9 12 14 16 20 18 23 23 21 19 16 14 21 23 24 25 25 25 25 25 24 22 21 22 23 21 16 14 12 13 18 20 18 15
5 6 5 5 12 16 9 8 11 6 5 18 23 25 14 12 17 20 20 21 24 23 24 23 22 21 19 18 22 24 25 25 25 26 26 25 23 23 24 25 22 19 17 15 17 20 23 21 17
5 11 10 10 24 23 10 16 8 18 20 33 27 28 27 28 21 24 24 23 22 26 25 25 24 24 23 22 23 22 24 26 27 27 27 26 26 26 26 27 24 21 18 16 20 21 26 25 19
6 5 13 15 23 24 20 15 17 13 39 35 32 29 31 32 34 28 27 24 24 25 25 28 27 28 26 26 27 27 26 26 25 26 28 29 29 28 28 27 25 22 18 16 20 22 29 27 22
6 14 16 20 29 19 18 18 9 22 36 33 29 31 33 32 27 29 26 24 26 27 26 25 26 29 31 31 31 30 29 29 28 27 28 31 31 30 30 29 26 23 19 16 18 24 30 27 25
14 7 8 15 16 7 16 3 6 21 19 17 19 12 18 19 20 25 22 22 26 31 33 31 29 28 28 32 34 34 32 32 32 30 29 29 33 33 32 31 29 25 20 17 19 24 28 26 25
5 2 2 5 6 5 2 4 4 27 22 25 20 13 7 6 7 8 9 11 12 14 21 29 34 34 33 32 35 35 35 34 35 34 32 31 32 33 35 34 32 27 23 22 23 28 31 28 25
3 6 6 7 21 14 6 9 14 31 30 26 32 31 26 1 5 5 3 5 9 11 15 20 26 32 35 35 36 37 38 38 35 35 35 33 33 34 36 37 34 32 28 26 27 33 31 30 25
10 10 8 6 13 17 8 10 12 25 23 23 26 30 26 20 19 13 5 2 5 9 12 17 20 25 31 36 39 38 38 41 38 38 35 35 35 34 36 37 36 36 31 30 32 35 32 29 28
7 7 8 10 11 15 12 12 12 25 31 24 28 28 25 23 19 18 17 10 3 9 10 12 18 20 22 26 35 39 39 40 43 42 38 34 37 36 37 39 38 39 36 35 35 36 34 33 33
8 8 9 10 18 14 15 11 16 21 21 25 26 28 29 25 24 24 24 22 15 10 7 10 12 14 16 18 23 29 35 38 43 45 45 41 39 38 37 35 41 40 38 38 39 39 39 37 36
6 10 16 17 16 8 9 4 14 19 27 27 25 22 26 27 27 29 30 29 24 19 16 13 11 16 19 21 24 29 34 38 38 39 41 41 42 44 41 36 36 43 42 41 38 41 43 45 40
9 13 15 17 13 9 4 4 15 18 20 24 32 30 26 31 30 32 32 32 32 28 19 14 12 14 16 18 20 23 30 38 43 42 39 37 41 43 40 41 39 40 42 41 41 43 44 48 44
7 17 16 18 16 5 4 2 7 15 16 19 26 33 31 31 31 32 32 31 30 33 30 24 15 10 12 15 14 22 27 34 37 40 41 41 42 40 37 38 42 43 43 41 44 45 46 47 46
14 13 10 6 3 1 6 4 9 8 12 15 26 31 34 32 30 33 35 36 36 33 33 31 28 25 10 4 5 20 19 32 35 38 41 43 43 40 37 36 39 41 42 42 42 44 45 48 48
13 12 4 5 4 3 9 6 6 11 14 15 18 27 30 32 30 35 40 39 39 40 37 35 32 31 28 21 10 5 9 19 33 39 41 44 41 38 38 38 38 39 38 39 37 38 40 41 40
8 3 0 4 3 7 4 3 2 6 14 16 19 23 25 28 29 34 38 37 37 42 39 36 34 32 31 29 25 12 5 7 18 20 40 42 40 37 33 34 33 35 36 36 34 35 34 35 39
6 5 5 4 4 1 4 4 6 16 13 22 24 28 29 22 29 32 33 36 37 37 37 36 35 32 31 29 29 24 14 9 12 17 25 37 37 35 34 33 32 29 29 30 30 31 30 29 33
3 5 4 1 3 5 3 3 4 16 18 18 21 27 31 26 29 32 31 31 32 32 32 35 34 33 31 29 26 28 24 18 13 14 17 21 35 35 34 35 30 27 25 25 26 28 27 30 31
5 4 3 2 4 3 3 4 4 6 9 15 22 27 27 28 30 30 29 28 29 30 31 31 34 35 31 31 30 26 24 22 16 13 16 15 20 34 34 33 34 32 28 28 29 28 27 27 29
5 4 3 2 3 3 1 2 3 4 14 21 24 30 24 27 32 30 30 29 31 32 32 31 32 32 32 30 27 28 26 22 19 18 13 15 13 28 29 29 28 29 29 27 26 27 26 26 26
Wind_Direction
132 139 126 85 52 60 268 262 266 289 284 185 147 132 180 221 174 216 148 161 154 179 174 181 179 175 173 171 168 169 169 165 161 158 157 152 150 151 153 152 153 151 150 151 154 148 139 126 112
139 134 97 98 92 56 268 259 261 250 167 114 118 354 94 227 177 158 159 185 229 194 183 183 182 180 178 175 173 173 172 168 164 160 161 159 155 155 158 158 152 157 169 164 165 155 143 130 121
146 122 103 102 116 196 223 246 302 147 151 148 64 38 323 91 148 149 167 176 183 171 181 189 186 185 183 180 179 177 177 174 169 166 166 166 162 161 161 160 161 154 146 167 162 159 157 153 143
149 115 61 92 225 250 232 295 251 156 125 150 150 307 9 113 154 173 158 167 188 184 176 180 193 189 187 184 183 183 182 181 179 173 171 172 170 170 168 166 162 151 140 142 155 168 186 201 202
100 95 59 320 256 262 258 277 244 226 167 194 182 239 244 117 158 166 174 183 196 194 182 188 200 196 191 188 188 186 187 187 185 183 179 178 179 178 177 173 164 161 155 157 171 204 222 208 178
91 102 78 244 252 275 298 286 236 219 195 198 186 214 224 173 177 179 186 177 197 217 196 206 201 206 196 194 193 193 191 193 192 189 188 187 187 183 178 179 173 167 176 189 203 216 183 150 147
119 97 209 228 264 303 257 344 352 290 311 248 264 183 230 184 187 194 181 193 190 211 215 205 211 201 208 202 199 198 197 197 198 196 193 192 193 192 187 184 183 183 199 204 205 183 155 154 134
149 102 236 245 214 257 339 358 357 323 281 306 238 228 242 198 199 198 197 202 198 207 217 207 208 209 210 211 205 203 204 203 202 199 198 197 196 196 194 190 189 194 194 200 196 161 157 154 137
167 70 225 243 198 241 10 23 319 328 296 302 251 318 312 208 208 212 203 202 196 204 215 215 211 217 220 214 213 209 209 208 207 206 204 202 199 199 197 194 198 203 203 198 190 170 167 160 156
151 168 221 223 213 319 306 290 305 310 291 293 296 277 271 248 222 224 219 212 206 214 216 219 220 222 214 215 215 216 213 210 210 210 209 207 205 200 194 194 203 210 208 200 193 176 170 166 172
195 216 219 272 296 304 291 293 282 246 252 269 279 286 302 247 235 237 244 242 230 219 218 226 227 235 223 216 219 221 221 219 215 214 213 212 208 201 199 201 206 211 212 206 196 185 180 173 175
267 257 256 281 288 287 283 291 263 254 270 283 273 278 282 274 263 249 250 252 248 230 222 226 228 230 233 227 223 223 221 223 223 218 217 215 211 207 205 208 211 215 216 215 204 192 186 179 179
258 269 288 302 299 294 288 257 264 285 279 279 282 279 277 275 274 267 262 257 254 244 233 227 229 229 233 234 232 225 221 220 223 227 226 221 217 215 212 211 212 216 217 217 209 203 189 184 186
300 306 303 301 294 289 276 286 294 274 278 279 275 276 281 273 273 275 261 254 244 242 242 242 239 238 240 239 236 235 229 224 223 225 229 229 224 221 218 216 214 213 217 222 216 203 190 189 189
294 285 291 272 270 257 305 351 236 305 304 294 295 305 291 280 276 275 276 262 250 240 239 242 249 254 245 240 240 238 235 232 230 227 228 230 229 226 224 221 215 214 216 218 211 197 187 186 183
292 7 359 306 350 311 74 287 330 346 349 324 312 292 339 319 296 300 287 264 247 242 242 242 241 239 238 242 237 241 239 236 234 234 232 230 228 230 227 223 218 213 215 210 204 194 186 185 183
322 273 291 318 21 4 348 331 349 0 356 347 334 323 315 82 33 22 339 265 242 237 233 235 235 233 235 236 239 241 239 238 236 235 233 232 230 229 229 226 222 215 210 206 200 191 191 184 189
324 313 326 331 352 353 337 339 344 334 333 340 15 32 31 28 19 8 359 291 231 222 218 217 222 232 234 232 232 233 235 238 238 234 232 232 232 230 229 228 227 217 211 202 193 190 192 194 191
349 344 343 357 2 342 331 317 314 14 21 33 21 21 19 13 5 5 7 357 284 245 237 225 216 219 227 232 231 232 234 235 239 239 235 230 229 228 228 228 226 223 215 204 200 194 194 193 200
35 9 346 312 352 332 314 318 43 42 35 31 22 18 13 7 9 7 5 4 2 346 303 270 251 232 225 230 227 231 232 241 243 244 241 236 230 227 224 227 226 223 215 206 203 200 195 196 202
12 11 337 312 324 261 358 336 35 9 20 22 26 24 26 22 22 22 20 16 10 358 352 322 293 261 247 244 245 239 238 241 245 242 238 234 229 228 227 227 228 222 218 215 213 210 207 200 198
330 352 319 309 320 308 99 270 39 8 15 16 7 11 17 22 27 27 24 22 26 23 8 345 328 287 268 252 256 256 250 246 244 240 233 229 223 221 224 225 226 224 219 217 216 212 215 208 200
299 315 298 283 275 281 284 114 345 16 9 1 356 5 4 24 23 24 21 18 17 28 28 23 11 329 272 256 254 251 250 250 248 243 229 223 222 220 223 224 224 220 220 225 220 218 218 219 208
312 326 303 284 248 11 70 18 35 16 359 355 359 1 3 3 18 21 16 15 16 21 25 23 23 23 9 322 266 239 240 243 241 239 228 220 219 220 222 223 220 220 221 223 220 225 223 218 222
352 344 329 357 7 310 331 55 37 5 360 357 352 353 358 2 19 16 13 9 5 15 18 17 16 21 21 14 19 207 225 225 231 235 225 217 214 213 217 218 218 218 221 221 221 220 223 225 228
332 328 316 299 306 283 308 78 84 359 357 351 356 353 359 2 15 7 7 8 360 4 7 10 11 14 19 11 14 44 149 193 214 219 229 219 214 212 214 215 216 218 219 220 222 221 222 227 227
325 345 299 260 239 240 91 27 261 0 353 355 360 355 357 10 9 5 1 5 1 3 356 360 6 6 8 17 10 25 53 71 170 170 201 217 206 206 208 211 215 211 213 214 215 217 218 223 230
1 332 351 345 333 315 63 92 342 345 347 346 354 350 350 6 4 360 1 1 358 357 357 353 359 2 4 4 19 16 31 44 55 118 155 176 208 204 202 206 203 208 208 209 213 216 220 226 226
358 353 315 259 340 330 338 280 259 320 330 337 347 347 354 358 355 355 357 358 355 354 356 354 355 354 356 2 9 18 16 27 46 54 88 123 166 197 199 198 199 204 209 211 213 216 222 226 227
77 326 316 351 349 340 115 234 280 277 337 345 345 343 345 349 349 351 352 354 354 352 352 352 352 356 352 355 1 6 19 9 29 51 50 86 91 167 184 191 194 202 210 214 216 216 218 220 224